GW6935 Weather Reports


time (UTC)temp
C
wind
direction
speed
KPH
gust
KPH
rain 1hr
cm
rain 24hr
cm
rain mn
cm
humidity
%
barometer
mb
20260905111850 21 286 6.4 9.7 0.13 0.15 0.15 89 1051.5
20260905111344 21 286 6.4 9.7 0.13 0.15 0.15 89 1051.5
20260905110844 21 311 6.4 6.4 0.30 0.15 0.15 89 1051.5
20260905110338 21 95 4.8 9.7 0.48 0.13 0.13 87 1051.4
20260905105834 22 322 6.4 9.7 0.48 0.08 0.08 84 1051.5
20260905105333 22 315 4.8 12.9 0.18 0.03 0.03 86 1051.1
20260905104832 22 318 6.4 14.5 0.00 0.00 0.00 86 1051.1
20260905104329 23 315 8.0 9.7 0.00 0.00 0.00 87 1050.8
20260905103828 23 340 9.7 17.7 0.00 0.00 0.00 85 1050.9
20260905103324 23 332 12.9 16.1 0.00 0.00 0.00 87 1050.6
20260905102820 23 340 4.8 6.4 0.00 0.00 0.00 95 1050.5
20260905102317 22 313 1.6 3.2 0.00 0.00 0.00 94 1050.2
20260905101816 22 301 1.6 4.8 0.00 0.00 0.00 94 1050.1
20260905101315 22 43 0.0 0.0 0.00 0.00 0.00 93 1049.5
20260905100809 22 43 0.0 0.0 0.00 0.00 0.00 93 1049.4
20260905100305 22 43 1.6 3.2 0.00 0.00 0.00 94 1049.6
20260905095805 22 44 0.0 0.0 0.00 0.00 0.00 94 1049.4
20260905095306 22 45 0.0 0.0 0.00 0.00 0.00 94 1049.3
20260905094759 22 44 0.0 0.0 0.00 0.00 0.00 95 1049.3
20260905094255 22 44 0.0 0.0 0.00 0.00 0.00 95 1049.5
20260905093754 22 44 0.0 0.0 0.00 0.00 0.00 95 1049.4
20260905093250 22 44 0.0 0.0 0.00 0.00 0.00 95 1049.1
20260905092745 22 44 0.0 0.0 0.00 0.00 0.00 95 1049.1
20260905092241 22 44 0.0 0.0 0.00 0.00 0.00 95 1049.2
20260905091740 22 44 0.0 0.0 0.00 0.00 0.00 94 1049.2
20260905091235 22 44 0.0 0.0 0.00 0.00 0.00 94 1049.3
20260905090734 22 44 0.0 0.0 0.00 0.00 0.00 94 1049.1
20260905090230 22 44 0.0 0.0 0.00 0.00 0.00 94 1049.2
20260905085729 22 44 0.0 0.0 0.00 0.00 0.00 94 1049.2
20260905085225 22 44 0.0 0.0 0.00 0.00 0.00 94 1049.3
20260905084724 22 44 0.0 0.0 0.00 0.00 0.00 94 1049.4
20260905084224 22 44 0.0 0.0 0.00 0.00 0.00 94 1049.3
20260905083719 22 44 0.0 0.0 0.00 0.00 0.00 93 1049.0
20260905083215 22 44 0.0 0.0 0.00 0.00 0.00 93 1049.0
20260905082711 22 44 0.0 0.0 0.00 0.00 0.00 93 1049.1
20260905082206 22 44 0.0 0.0 0.00 0.00 0.00 93 1049.0
20260905081706 22 44 0.0 0.0 0.00 0.00 0.00 93 1049.1
20260905081201 22 44 0.0 0.0 0.00 0.00 0.00 94 1048.8
20260905080701 22 44 0.0 0.0 0.00 0.00 0.00 94 1048.9
20260905080201 22 44 0.0 0.0 0.00 0.00 0.00 94 1048.7
20260905075700 22 44 0.0 0.0 0.00 0.00 0.00 94 1048.8
20260905075159 22 44 0.0 0.0 0.00 0.00 0.00 94 1049.0
20260905074658 22 44 0.0 0.0 0.00 0.00 0.00 93 1049.3
20260905074154 22 44 0.0 0.0 0.00 0.00 0.00 93 1049.2
20260905073650 22 44 0.0 0.0 0.00 0.00 0.00 92 1049.3
20260905073145 22 44 0.0 0.0 0.00 0.00 0.00 92 1049.2
20260905072644 22 44 0.0 0.0 0.00 0.00 0.00 92 1049.5
20260905072140 22 44 0.0 0.0 0.00 0.00 0.00 92 1049.4
20260905071636 22 44 0.0 0.0 0.00 0.00 0.00 92 1049.3
20260905071131 22 44 0.0 0.0 0.00 0.00 0.00 91 1049.3
20260905070627 23 44 0.0 0.0 0.00 0.00 0.00 90 1049.7
20260905070123 23 44 0.0 0.0 0.00 0.00 0.00 89 1049.3
20260905065621 23 44 0.0 0.0 0.00 0.00 0.00 90 1049.5
20260905065116 23 44 0.0 0.0 0.00 0.00 0.00 90 1049.5
20260905064611 23 44 0.0 0.0 0.00 0.00 0.00 91 1049.5
20260905064106 23 44 0.0 0.0 0.00 0.00 0.00 92 1050.0
20260905063605 23 44 0.0 0.0 0.00 0.00 0.00 92 1049.7
20260905063102 23 44 0.0 0.0 0.00 0.00 0.00 91 1050.0
20260905062557 23 44 0.0 0.0 0.00 0.00 0.00 91 1050.0
20260905062056 23 44 0.0 0.0 0.00 0.00 0.00 91 1049.9
20260905061551 23 44 0.0 0.0 0.00 0.00 0.00 91 1049.9
20260905061050 23 44 0.0 0.0 0.00 0.00 0.00 91 1050.1
20260905060547 23 44 0.0 0.0 0.00 0.00 0.00 92 1050.2
20260905060042 23 44 0.0 0.0 0.00 0.00 0.00 91 1050.2
20260905055541 23 44 0.0 0.0 0.00 0.00 0.00 91 1050.3
20260905055036 23 44 0.0 0.0 0.00 0.00 0.00 91 1050.2
20260905054532 23 44 0.0 0.0 0.00 0.00 0.00 90 1050.3
20260905054027 23 44 0.0 0.0 0.00 0.00 0.00 90 1050.6
20260905053526 23 44 0.0 0.0 0.00 0.00 0.00 89 1050.3
20260905053022 23 44 0.0 0.0 0.00 0.00 0.00 89 1050.8
20260905052521 23 44 0.0 0.0 0.00 0.00 0.00 89 1050.3
20260905052016 23 44 0.0 0.0 0.00 0.00 0.00 89 1050.5
20260905051512 23 44 0.0 0.0 0.00 0.00 0.00 90 1050.6
20260905051009 23 44 0.0 0.0 0.00 0.00 0.00 91 1050.8
20260905050504 23 44 0.0 0.0 0.00 0.00 0.00 90 1050.5
20260905050001 23 44 0.0 0.0 0.00 0.00 0.00 90 1050.8
20260905045455 23 44 0.0 0.0 0.00 0.00 0.00 91 1050.6
20260905044951 23 44 0.0 0.0 0.00 0.00 0.00 91 1050.5
20260905044451 23 44 0.0 0.0 0.00 0.00 0.00 90 1050.5
20260905043945 23 44 0.0 0.0 0.00 0.00 0.00 89 1050.6
20260905043444 23 44 0.0 0.0 0.00 0.00 0.00 89 1050.6
20260905042939 24 44 0.0 0.0 0.00 0.00 0.00 88 1050.8
20260905042439 24 44 0.0 0.0 0.00 0.00 0.00 86 1050.5
20260905041934 25 44 0.0 0.0 0.00 0.00 0.00 85 1050.6
20260905041430 25 43 0.0 0.0 0.00 0.00 0.00 85 1050.8
20260905040925 25 44 0.0 1.6 0.00 0.00 0.00 84 1050.5
20260905040424 25 44 0.0 1.6 0.00 0.00 0.00 82 1050.6